Fort Campbell, KY

9:12 PM CDT on August 24, 2016 (GMT -0500)
Campbell Army Air Field

Weather History for KHOP - October, 2012

Change the Weather History Date:

Wednesday, October 31, 2012

  Actual Average Record
Temperature  
Mean Temperature 44 °F -  
Max Temperature 57 °F 64 °F 82 °F (2000)
Min Temperature 31 °F 43 °F 31 °F (2012)
Degree Days  
Heating Degree Days 22    
Moisture  
Dew Point 24 °F    
Average Humidity 51    
Maximum Humidity 83    
Minimum Humidity 26    
Precipitation  
Precipitation 0.00 in - - ()
Sea Level Pressure  
Sea Level Pressure 29.92 in    
Wind  
Wind Speed 7 mph (West)    
Max Wind Speed 15 mph    
Max Gust Speed 20 mph    
Visibility 10 miles    
Events      
Averages and records for this station are not official NWS values.
T = Trace of Precipitation, MM = Missing Value Source: NWS Daily Summary

Daily Weather History Graph

Daily Weather History Graph

Search for Another Location

Airport or City:

Trip Planner

Search our weather history database for the weather conditions in past years. The results will help you decide how hot, cold, wet, or windy it might be!

Date:

Astronomy

Oct. 31, 2012 Rise Set
Actual Time 7:13 AM CDT 5:53 PM CDT
Civil Twilight 6:46 AM CDT 6:20 PM CDT
Nautical Twilight 6:15 AM CDT 6:50 PM CDT
Astronomical Twilight 5:45 AM CDT 7:20 PM CDT
Moon 7:07 PM CDT (10/31) 8:50 AM CDT (10/31)
Length of Visible Light 11h 34m
Length of Day
10h 40m
Full, 97% of the Moon is Illuminated
Oct 31
Full
Nov 6
Last Quarter
Nov 13
New
Nov 20
First Quarter
Nov 28
Full

Hourly Weather History & Observations

Time (CDT) Temp. Windchill Dew Point Humidity Pressure Visibility Wind Dir Wind Speed Gust Speed Precip Events Conditions
12:55 AM 38.7 °F 34.3 °F 26.2 °F 61% 29.88 in 10.0 mi West 5.8 mph - N/A   Clear
1:55 AM 34.5 °F 29.4 °F 26.6 °F 73% 29.88 in 10.0 mi WSW 5.8 mph - N/A   Clear
2:55 AM 35.8 °F 31.9 °F 27.3 °F 71% 29.88 in 10.0 mi West 4.6 mph - N/A   Clear
3:55 AM 34.3 °F 30.2 °F 27.0 °F 74% 29.88 in 10.0 mi West 4.6 mph - N/A   Clear
4:55 AM 31.8 °F 28.5 °F 26.4 °F 80% 29.90 in 10.0 mi WSW 3.5 mph - N/A   Clear
5:55 AM 33.3 °F 28.9 °F 27.7 °F 80% 29.90 in 10.0 mi WSW 4.6 mph - N/A   Clear
6:55 AM 31.6 °F 28.3 °F 27.1 °F 83% 29.91 in 10.0 mi West 3.5 mph - N/A   Clear
7:55 AM 35.4 °F 30.5 °F 29.7 °F 80% 29.93 in 10.0 mi West 5.8 mph - N/A   Clear
8:55 AM 42.6 °F 37.2 °F 31.6 °F 65% 29.94 in 10.0 mi West 9.2 mph - N/A   Clear
9:55 AM 46.0 °F 41.4 °F 28.4 °F 50% 29.94 in 10.0 mi WNW 9.2 mph - N/A   Clear
10:55 AM 49.5 °F - 26.1 °F 40% 29.94 in 10.0 mi WNW 11.5 mph - N/A   Clear
11:55 AM 52.3 °F - 24.8 °F 34% 29.94 in 10.0 mi WNW 12.7 mph 17.3 mph N/A   Clear
12:55 PM 54.1 °F - 23.4 °F 30% 29.93 in 10.0 mi WNW 10.4 mph 19.6 mph N/A   Clear
1:55 PM 55.9 °F - 23.2 °F 28% 29.91 in 10.0 mi West 11.5 mph 16.1 mph N/A   Clear
2:55 PM 56.7 °F - 21.6 °F 26% 29.90 in 10.0 mi West 10.4 mph - N/A   Clear
3:55 PM 56.8 °F - 22.8 °F 27% 29.90 in 10.0 mi West 15.0 mph - N/A   Clear
4:55 PM 53.6 °F - 21.6 °F 29% 29.91 in 10.0 mi West 10.4 mph - N/A   Clear
5:55 PM 52.0 °F - 19.6 °F 28% 29.91 in 10.0 mi West 9.2 mph - N/A   Clear
6:55 PM 47.8 °F - 18.9 °F 32% 29.93 in 10.0 mi WNW 4.6 mph - N/A   Clear
7:55 PM 43.7 °F 42.1 °F 19.4 °F 38% 29.95 in 10.0 mi WNW 3.5 mph - N/A   Clear
8:55 PM 45.3 °F 42.3 °F 18.3 °F 34% 29.96 in 10.0 mi WNW 5.8 mph - N/A   Clear
9:55 PM 42.8 °F 41.1 °F 18.1 °F 37% 29.97 in 10.0 mi WNW 3.5 mph - N/A   Partly Cloudy
10:55 PM 37.0 °F 34.5 °F 22.1 °F 55% 29.98 in 10.0 mi WSW 3.5 mph - N/A   Scattered Clouds
11:55 PM 33.1 °F 28.7 °F 25.0 °F 72% 29.98 in 10.0 mi SW 4.6 mph - N/A   Mostly Cloudy